Location: �quirre
(50.4736°N, 2.2351°E)
Time: 16:38:01
(UTC+00:00)

Cosmos 1340 Rocket - Pass Details

Date: 07 August 2020
Orbit: 529 x 558 km, 81.2° (Epoch: 18 September)

Event Time Altitude Azimuth Distance (km) Brightness Sun altitude
Exits shadow 03:30:53 11° 219° (SW) 1,779 4.8 -8.4°
Maximum altitude 03:34:33 39° 288° (WNW) 828 3.5 -8.0°
Drops below altitude 10° 03:38:18 10° 359° (N) 1,809 6.0 -7.5°
Sets 03:40:34 0° 7° (N) 2,701 7.1 -7.2°
